Flag for Austria Weather past 2 weeks in Zwettl, Lower Austria, Austria

Now
62 °F

Cool.


Feels Like: 62 °F
Forecast: 53 / 78 °F
Wind: 6 mph from Northwest

Location: Retz

Current Time: Jun 2, 2015 at 5:31:05 AM

Latest Report: Jun 2, 2015 at 4:00 AM


Visibility: N/A

Pressure: 30.01 "Hg

Humidity: 73%

Dew point: 53 °F

Location of ZwettlLocation

Historic Weather in Zwettl — Graph

°F

Zwettl temperature yesterday

Maximum temperature yesterday: 78 °F (at 5:00 PM)
Minimum temperature yesterday: 59 °F (at 6:00 AM)
Average temperature yesterday: 69 °F

Past Weeks' High & Low Weather Summary

 TemperatureHumidityPressure
High78 °F (Jun 1, 5:00 PM)98% (May 23, 7:00 PM)30.21 "Hg (May 23, 7:00 PM)
Low47 °F (May 27, 6:00 AM)39% (May 29, 4:00 PM)29.72 "Hg (May 19, 6:00 AM)
Average58 °F73%29.97 "Hg
* Reported May 18 4:00 AM — Jun 2 4:00 AM, Zwettl, Weather by CustomWeather, © 2015

Note: Actual official high and low records may vary slightly from our data, if they occured in-between our weather recording intervals... More about our weather records

Advertising

Zwettl weather history for previous 24 hours

 ConditionsComfort  
Time TempWeatherWind HumidityBarometerVisibility
4:00 AM
Tue, Jun 2
62 °FCool.6 mph73%30.01 "HgN/A
3:00 AM64 °FMild.3 mph73%30.01 "HgN/A
2:00 AM65 °FMild.2 mph73%30.00 "HgN/A
1:00 AM67 °FMild.2 mph67%29.99 "HgN/A
12:00 AM68 °FMild.1 mph62%29.99 "HgN/A
10:00 PM
Mon, Jun 1
70 °FMild.1 mph60%29.98 "HgN/A
9:00 PM71 °FMild.2 mph63%29.96 "HgN/A
8:00 PM73 °FScattered clouds.2 mph59%29.96 "Hg16 mi
7:00 PM75 °FMild.5 mph55%29.96 "HgN/A
6:00 PM77 °FMild.5 mph51%29.96 "HgN/A
5:00 PM78 °FWarm.3 mph47%29.97 "HgN/A
4:00 PM76 °FMild.3 mph47%29.98 "HgN/A
3:00 PM77 °FMild.1 mph47%29.98 "HgN/A
2:00 PM76 °FPartly sunny.2 mph48%30.00 "Hg19 mi
1:00 PM74 °FMild.3 mph55%30.00 "HgN/A
11:00 AM72 °FMild.3 mph60%30.02 "HgN/A
10:00 AM68 °FMild.2 mph67%30.03 "HgN/A
9:00 AM66 °FMild.1 mph70%30.03 "HgN/A
8:00 AM63 °FScattered clouds.1 mph79%30.03 "Hg12 mi
7:00 AM59 °FPassing clouds.1 mph86%30.03 "Hg11 mi
6:00 AM59 °FCool.1 mph85%30.01 "HgN/A
Weather by CustomWeather, © 2015

See weather overviewHow to use our weather pages